NANOSAT-1

Last updated on Sun Jun 21 2026 00:03:22 GMT+0000 (Coordinated Universal Time)

1 28493U 04049B 26171.34633970 .00000741 00000+0 10490-3 0 9993 2 28493 98.2281 308.0845 0002736 287.9038 72.1875 14.80164628155912
UTC large
Height (km)
Speed (km/s)
/
Latitude / Longitude
Inclination (degrees)
Orbital Period (minutes)
Azimuth
Elevation
Range (km)
Doppler Factor

Next 0 passes for location: London (51.5072 / 0.1276)

No passes found over London.
NANOSAT-1